#timestamp,LO_Frequency,Hit,StdDev 
1460203215.4,286046989.1,N
1460203235.2,286046985.3,N
1460203255.1,286046983.7,N
1460203256.0,286046983.7,N
1460203275.8,286046987.8,N
1460203295.6,286046988.5,N
1460203315.5,286046990.0,N
1460203335.3,286046986.9,N
1460203355.1,286046987.6,N
1460203375.9,286046985.4,N
1460203395.7,286046985.8,N
1460203415.5,286046983.0,N
1460203435.4,286046982.0,N
1460203455.2,286046981.1,N
1460203475.0,286046981.7,N
1460203475.9,286046981.7,N
1460203495.8,286046979.0,N
1460203515.6,286046983.6,N
1460203535.4,286046982.2,N
1460203555.2,286046986.8,N
1460203575.1,286046985.7,N
1460203576.0,286046985.7,N
1460203595.8,286046987.7,N
1460203615.6,286046989.0,N
1460203635.5,286046987.4,N
1460203655.3,286046988.5,N
1460203675.1,286046987.2,Y
1460203695.9,286047000.2,P
1460203715.7,286047002.0,N
1460203735.5,286047003.2,N
1460203755.4,286047003.1,N
1460203775.2,286047007.2,N
1460203795.0,286047006.6,N
1460203795.9,286047006.6,N
1460203815.8,286047008.9,N
1460203835.6,286047007.1,N
1460203855.4,286047004.7,N
1460203875.3,286047007.3,N
1460203895.1,286047004.9,N
1460203896.0,286047004.9,N
1460203915.8,286047006.7,N
1460203935.7,286047007.3,N
1460203955.5,286047007.2,N
1460203975.3,286047004.8,N
1460203995.2,286047006.7,N
1460204015.9,286047005.8,N
1460204035.7,286047003.3,N
1460204055.5,286047006.0,N
1460204075.4,286047005.8,N
1460204095.2,286046998.1,N
1460204115.0,286046998.1,N
1460204115.9,286046998.1,N
1460204135.8,286047001.5,N
1460204155.6,286047002.0,N
1460204175.4,286047004.9,N
1460204195.3,286047006.9,N
1460204215.1,286047007.5,N
1460204216.0,286047007.5,N
1460204235.8,286047004.6,N
1460204255.7,286047007.6,N
1460204275.5,286047006.7,N
1460204295.3,286047008.7,Y
1460204315.2,286047000.6,P
1460204335.9,286046996.9,N
1460204355.7,286046994.9,N
1460204375.6,286046995.3,N
1460204395.4,286046991.9,N
1460204415.2,286046993.5,N
1460204435.1,286046994.0,N
1460204436.0,286046994.0,N
1460204455.8,286046997.1,N
1460204475.6,286046995.8,N
1460204495.5,286046995.3,N
1460204515.3,286046995.4,N
1460204535.1,286047000.5,N
1460204555.8,286046998.8,N
1460204575.7,286046998.4,N
1460204595.5,286047001.1,N
1460204615.3,286047000.7,N
1460204635.2,286046997.7,N
1460204655.9,286046995.8,N
1460204675.7,286046992.1,N
1460204695.6,286046993.0,N
1460204715.4,286046992.7,N
1460204735.2,286046993.3,N
1460204755.1,286046996.0,N
1460204756.0,286046996.0,N
1460204775.8,286046994.8,N
1460204795.6,286046993.5,N
1460204815.4,286046994.6,N
1460204835.3,286046996.8,N
1460204855.1,286046997.1,N
1460204875.8,286046998.6,N
1460204895.7,286047000.0,N
1460204915.5,286047000.5,N
1460204935.3,286046998.5,N
1460204955.2,286046995.0,N
1460204975.9,286046991.8,Y
1460204995.7,286046996.2,P
1460205015.6,286046994.8,P
1460205035.4,286046996.4,P
1460205055.2,286046997.7,Y
1460205075.1,286046999.1,P
1460205076.0,286046999.1,N
1460205095.8,286046998.9,N
1460205115.6,286046996.9,N
1460205135.5,286046997.6,N
1460205155.3,286047000.3,N
1460205175.1,286046998.8,N
1460205195.9,286047002.0,N
1460205215.7,286047003.6,N
1460205235.5,286047004.5,N
1460205255.4,286047007.6,N
1460205275.2,286047007.4,N
1460205295.0,286047005.9,N
1460205295.9,286047005.9,N
1460205315.7,286047000.5,N
1460205335.6,286046999.0,N
1460205355.4,286046995.8,N
1460205375.2,286046996.3,N
1460205395.1,286046993.5,N
1460205396.0,286046993.5,N
1460205415.8,286046992.2,N
1460205435.6,286046992.9,N
1460205455.5,286046989.2,N
1460205475.3,286046987.3,N
1460205495.1,286046987.0,N
1460205515.9,286046991.4,N
1460205535.7,286046989.5,N
1460205555.5,286046987.9,N
1460205575.4,286046986.9,N
1460205595.2,286046987.3,N
1460205615.0,286046986.1,N
1460205615.9,286046986.1,N
1460205635.7,286046984.3,N
1460205655.6,286046988.2,N
1460205675.4,286046987.5,N
1460205695.2,286046984.0,N
1460205715.1,286046988.0,N
1460205716.0,286046988.0,N
1460205735.8,286046985.8,N
1460205755.6,286046991.5,N
1460205775.5,286046990.4,N
1460205795.3,286046994.3,N
1460205815.1,286046995.1,N
1460205835.9,286046993.5,N
1460205855.7,286046990.5,N
1460205875.5,286046993.8,N
1460205895.4,286046996.7,N
1460205915.2,286047001.9,N
1460205935.0,286047003.4,N
1460205935.9,286047003.4,N
1460205955.8,286047003.5,N
1460205975.6,286047002.9,N
1460205995.4,286047003.1,N
1460206015.2,286047007.4,N
1460206035.1,286047007.8,N
1460206036.0,286047007.8,N
1460206055.8,286047010.3,N
1460206075.6,286047006.5,N
1460206095.5,286047005.0,N
1460206115.3,286047007.1,N
1460206135.1,286047005.7,N
1460206155.9,286047006.2,N
1460206175.7,286047007.7,N
1460206195.5,286047012.4,N
1460206215.4,286047009.3,N
1460206235.2,286047012.4,N
1460206255.0,286047010.4,N
1460206255.9,286047010.4,N
1460206275.8,286047008.8,N
1460206295.6,286047010.5,N
1460206315.4,286047010.3,N
1460206335.3,286047012.9,N
1460206355.1,286047013.6,N
1460206356.0,286047013.6,N
1460206375.8,286047013.5,N
1460206395.7,286047013.2,N
1460206415.5,286047012.5,Y
1460206435.3,286047006.9,P
1460206455.2,286047008.5,P
1460206475.9,286047008.5,P
1460206495.7,286047007.2,Y
1460206515.6,286046998.2,P
1460206535.4,286046997.1,N
1460206555.2,286046997.1,N
1460206575.1,286046996.9,N
1460206576.0,286046996.9,N
1460206595.8,286046995.1,N
1460206615.6,286046996.1,N
1460206635.5,286046992.5,N
1460206655.3,286046992.0,N
1460206675.1,286046991.0,N
1460206695.9,286046985.7,Y
1460206715.7,286046989.7,P
1460206735.5,286046989.7,P
1460206755.3,286046989.8,P
1460206775.2,286046988.7,Y
1460206795.0,286046999.0,P
1460206795.9,286046999.0,N
